Weather History for KGPH - June, 2013

Change the Weather History Date:

Tuesday, June 18, 2013

  Actual Average (KMCI) Record (KMCI)
Temperature  
Mean Temperature 73 °F 74 °F  
Max Temperature 82 °F 84 °F 104 °F (1953)
Min Temperature 64 °F 65 °F 52 °F (2000)
Degree Days  
Heating Degree Days 0 0  
Month to date heating degree days 7  
Since 1 June heating degree days 7  
Since 1 July heating degree days 5131  
Cooling Degree Days 8 10  
Month to date cooling degree days 134  
Year to date cooling degree days 250  
Since 1 June cooling degree days 134  
Growing Degree Days 23 (Base 50)    
Moisture  
Dew Point 64 °F    
Average Humidity 77    
Maximum Humidity 100    
Minimum Humidity 42    
Precipitation  
Precipitation 0.00 in 0.18 in 2.35 in (1983)
Month to date precipitation 3.19  
Year to date precipitation 17.02  
Snow  
Snow 0.00 in 0.00 in 0.00 in ()
Month to date snowfall 0.0  
Since 1 June snowfall 0.0  
Since 1 July snowfall 18.8  
Snow Depth -    
Sea Level Pressure  
Sea Level Pressure 30.00 in    
Wind  
Wind Speed 2 mph (NNE)    
Max Wind Speed 16 mph    
Max Gust Speed 21 mph    
Visibility 8 miles    
Events Fog    
T = Trace of Precipitation, MM = Missing Value Source: NWS Daily Summary

Daily Weather History Graph

Daily Weather History Graph

Search for Another Location

Airport or City:

Trip Planner

Search our weather history database for the weather conditions in past years. The results will help you decide how hot, cold, wet, or windy it might be!

Date:

Astronomy

Jun. 18, 2013 Rise Set
Actual Time 5:50 AM CDT 8:46 PM CDT
Civil Twilight 5:17 AM CDT 9:19 PM CDT
Nautical Twilight 4:36 AM CDT 10:00 PM CDT
Astronomical Twilight 3:49 AM CDT 10:47 PM CDT
Moon 3:33 PM CDT (6/18) 1:57 AM CDT (6/18)
Length of Visible Light 16h 01m
Length of Day
14h 56m
Waxing Gibbous, 71% of the Moon is Illuminated
Jun 18
Waxing Gibbous
Jun 23
Full
Jun 29
Last Quarter
Jul 8
New
Jul 15
First Quarter

Hourly Weather History & Observations

Time (CDT) Temp. Heat Index Dew Point Humidity Pressure Visibility Wind Dir Wind Speed Gust Speed Precip Events Conditions
12:15 AM 66.2 °F - 66.2 °F 100% 29.98 in 0.2 mi Calm Calm - N/A Fog Fog
12:35 AM 66.2 °F - 66.2 °F 100% 29.97 in 0.2 mi Calm Calm - N/A Fog Fog
12:55 AM 66.2 °F - 66.2 °F 100% 29.98 in 0.2 mi Calm Calm - N/A Fog Fog
1:15 AM 68.0 °F - 68.0 °F 100% 29.98 in 1.5 mi South 3.5 mph - N/A   Mostly Cloudy
1:35 AM 66.2 °F - 66.2 °F 100% 29.99 in 7.0 mi Calm Calm - N/A   Scattered Clouds
1:55 AM 68.0 °F - 68.0 °F 100% 29.98 in 10.0 mi Calm Calm - N/A   Clear
2:15 AM 66.2 °F - 66.2 °F 100% 29.99 in 5.0 mi Calm Calm - N/A   Mist
2:35 AM 64.4 °F - 64.4 °F 100% 29.99 in 5.0 mi Calm Calm - N/A   Clear
2:55 AM 64.4 °F - 64.4 °F 100% 30.00 in 4.0 mi ESE 5.8 mph - N/A   Clear
3:15 AM 64.4 °F - 64.4 °F 100% 29.99 in 4.0 mi Calm Calm - N/A   Mist
3:35 AM 64.4 °F - 64.4 °F 100% 29.99 in 4.0 mi Calm Calm - N/A   Clear
3:55 AM 64.4 °F - 64.4 °F 100% 30.00 in 4.0 mi Calm Calm - N/A   Clear
4:15 AM 64.4 °F - 64.4 °F 100% 29.99 in 3.0 mi Calm Calm - N/A   Clear
4:35 AM 64.4 °F - 64.4 °F 100% 29.99 in 3.0 mi Calm Calm - N/A   Clear
4:55 AM 64.4 °F - 64.4 °F 100% 29.99 in 4.0 mi Calm Calm - N/A   Clear
5:15 AM 64.4 °F - 64.4 °F 100% 29.99 in 5.0 mi NW 6.9 mph - N/A   Clear
5:35 AM 64.4 °F - 64.4 °F 100% 29.99 in 7.0 mi Calm Calm - N/A   Clear
5:55 AM 64.4 °F - 64.4 °F 100% 29.99 in 7.0 mi NNW 3.5 mph - N/A   Clear
6:15 AM 64.4 °F - 64.4 °F 100% 29.99 in 5.0 mi Calm Calm - N/A   Clear
6:35 AM 64.4 °F - 64.4 °F 100% 29.99 in 5.0 mi Calm Calm - N/A   Clear
6:55 AM 64.4 °F - 64.4 °F 100% 29.99 in 5.0 mi Calm Calm - N/A   Clear
7:15 AM 66.2 °F - 66.2 °F 100% 29.99 in 7.0 mi Calm Calm - N/A   Clear
7:35 AM 68.0 °F - 68.0 °F 100% 30.00 in 7.0 mi Calm Calm - N/A   Clear
7:55 AM 69.8 °F - 69.8 °F 100% 30.01 in 10.0 mi Calm Calm - N/A   Clear
8:15 AM 71.6 °F - 69.8 °F 94% 30.01 in 10.0 mi Calm Calm - N/A   Clear
8:35 AM 73.4 °F - 69.8 °F 88% 30.01 in 10.0 mi Calm Calm - N/A   Clear
8:55 AM 73.4 °F - 69.8 °F 88% 30.01 in 10.0 mi Calm Calm - N/A   Clear
9:15 AM 75.2 °F - 62.6 °F 65% 30.02 in 10.0 mi NNW 5.8 mph - N/A   Clear
9:35 AM 77.0 °F - 64.4 °F 65% 30.02 in 10.0 mi NNW 6.9 mph - N/A   Clear
9:55 AM 77.0 °F - 64.4 °F 65% 30.03 in 10.0 mi North 6.9 mph - N/A   Clear
10:15 AM 78.8 °F - 59.0 °F 51% 30.02 in 10.0 mi NNE 5.8 mph - N/A   Clear
10:35 AM 78.8 °F - 57.2 °F 47% 30.03 in 10.0 mi NNE 8.1 mph - N/A   Clear
10:55 AM 80.6 °F 81.1 °F 59.0 °F 48% 30.03 in 10.0 mi North 10.4 mph - N/A   Clear
11:15 AM 80.6 °F 81.1 °F 59.0 °F 48% 30.04 in 10.0 mi North 11.5 mph 16.1 mph N/A   Clear
11:35 AM 80.6 °F 81.1 °F 59.0 °F 48% 30.03 in 10.0 mi NE 9.2 mph - N/A   Clear
11:55 AM 78.8 °F - 57.2 °F 47% 30.04 in 10.0 mi NNE 8.1 mph - N/A   Clear
12:15 PM 80.6 °F 81.1 °F 59.0 °F 48% 30.04 in 10.0 mi NNE 9.2 mph - N/A   Clear
12:35 PM 80.6 °F 81.1 °F 59.0 °F 48% 30.03 in 10.0 mi ENE 8.1 mph - N/A   Clear
12:55 PM 80.6 °F 81.1 °F 59.0 °F 48% 30.04 in 10.0 mi NE 5.8 mph - N/A   Clear
1:15 PM 80.6 °F 81.1 °F 59.0 °F 48% 30.04 in 10.0 mi NE 5.8 mph - N/A   Clear
1:35 PM 80.6 °F 81.1 °F 59.0 °F 48% 30.03 in 10.0 mi Calm Calm - N/A   Clear
1:55 PM 82.4 °F 82.5 °F 59.0 °F 45% 30.02 in 10.0 mi North 8.1 mph - N/A   Clear
2:15 PM 82.4 °F 82.5 °F 59.0 °F 45% 30.02 in 10.0 mi ENE 5.8 mph - N/A   Clear
2:35 PM 82.4 °F 82.5 °F 59.0 °F 45% 30.02 in 10.0 mi North 9.2 mph - N/A   Clear
2:55 PM 82.4 °F 82.0 °F 57.2 °F 42% 30.03 in 10.0 mi NNE 4.6 mph - N/A   Clear
3:15 PM 82.4 °F 82.5 °F 59.0 °F 45% 30.03 in 10.0 mi NNW 9.2 mph - N/A   Scattered Clouds
3:35 PM 82.4 °F 82.5 °F 59.0 °F 45% 30.02 in 10.0 mi North 15.0 mph - N/A   Mostly Cloudy
3:55 PM 78.8 °F - 62.6 °F 57% 30.01 in 10.0 mi NNE 16.1 mph 20.7 mph N/A   Scattered Clouds
4:15 PM 77.0 °F - 62.6 °F 61% 30.01 in 10.0 mi NNE 8.1 mph - N/A   Clear
4:35 PM 77.0 °F - 60.8 °F 57% 30.01 in 10.0 mi North 9.2 mph - N/A   Clear
4:55 PM 77.0 °F - 60.8 °F 57% 30.00 in 10.0 mi NNE 3.5 mph - N/A   Clear
5:15 PM 77.0 °F - 60.8 °F 57% 29.99 in 10.0 mi NNE 4.6 mph - N/A   Clear
5:35 PM 77.0 °F - 62.6 °F 61% 29.99 in 10.0 mi Calm Calm - N/A   Clear
5:55 PM 77.0 °F - 60.8 °F 57% 29.99 in 10.0 mi Calm Calm - N/A   Scattered Clouds
6:15 PM 77.0 °F - 62.6 °F 61% 29.99 in 10.0 mi Calm Calm - N/A   Scattered Clouds
6:35 PM 75.2 °F - 64.4 °F 69% 29.99 in 10.0 mi Calm Calm - N/A   Scattered Clouds
6:55 PM 77.0 °F - 62.6 °F 61% 30.00 in 10.0 mi Calm Calm - N/A   Mostly Cloudy
7:15 PM 77.0 °F - 62.6 °F 61% 29.99 in 10.0 mi Calm Calm - N/A   Mostly Cloudy
7:35 PM 75.2 °F - 64.4 °F 69% 30.00 in 10.0 mi Calm Calm - N/A   Mostly Cloudy
7:55 PM 77.0 °F - 64.4 °F 65% 30.00 in 10.0 mi Calm Calm - N/A   Scattered Clouds
8:15 PM 77.0 °F - 64.4 °F 65% 30.00 in 10.0 mi Calm Calm - N/A   Clear
8:35 PM 75.2 °F - 64.4 °F 69% 29.99 in 10.0 mi Calm Calm - N/A   Clear
8:55 PM 71.6 °F - 68.0 °F 88% 29.99 in 10.0 mi Calm Calm - N/A   Clear
9:15 PM 71.6 °F - 68.0 °F 88% 29.99 in 10.0 mi Calm Calm - N/A   Clear
9:35 PM 71.6 °F - 68.0 °F 88% 29.99 in 10.0 mi Calm Calm - N/A   Clear
9:55 PM 69.8 °F - 68.0 °F 94% 29.99 in 10.0 mi Calm Calm - N/A   Clear
10:15 PM 69.8 °F - 68.0 °F 94% 30.00 in 10.0 mi Calm Calm - N/A   Clear
10:35 PM 68.0 °F - 68.0 °F 100% 30.00 in 10.0 mi Calm Calm - N/A   Clear
10:55 PM 68.0 °F - 68.0 °F 100% 30.01 in 10.0 mi Calm Calm - N/A   Clear
11:15 PM 68.0 °F - 68.0 °F 100% 30.00 in 10.0 mi Calm Calm - N/A   Clear
11:35 PM 66.2 °F - 66.2 °F 100% 30.00 in 10.0 mi Calm Calm - N/A   Clear
11:55 PM 66.2 °F - 66.2 °F 100% 30.00 in 10.0 mi Calm Calm - N/A   Unknown